#timestamp,LO_Frequency,Hit,StdDev 
1569693615.7,286047000.2,N
1569693635.6,286046999.8,N
1569693655.4,286047000.3,N
1569693675.3,286047001.0,N
1569693695.1,286047001.1,N
1569693715.8,286046998.6,N
1569693735.6,286046996.7,N
1569693755.4,286046999.4,N
1569693775.3,286046999.5,N
1569693795.1,286046999.6,N
1569693815.8,286046996.7,N
1569693835.7,286046995.5,N
1569693855.5,286046995.5,N
1569693875.4,286046995.3,N
1569693895.2,286046995.4,N
1569693915.0,286046997.2,N
1569693915.9,286046997.2,N
1569693935.8,286046997.4,N
1569693955.6,286046995.3,N
1569693975.4,286046993.5,N
1569693995.3,286046993.5,N
1569694015.1,286046993.4,N
1569694035.9,286046993.4,N
1569694055.7,286046994.0,N
1569694075.5,286046994.7,N
1569694095.4,286046992.2,N
1569694115.2,286046994.0,N
1569694135.0,286046994.9,N
1569694135.9,286046994.9,N
1569694155.8,286046996.1,N
1569694175.6,286046993.8,N
1569694195.5,286046994.2,N
1569694215.3,286046994.1,N
1569694235.1,286046991.9,Y
1569694255.9,286046998.9,P
1569694275.7,286046998.8,N
1569694295.6,286046999.3,N
1569694315.4,286046998.1,N
1569694335.2,286046999.6,N
1569694355.1,286046998.5,N
1569694356.0,286046998.5,N
1569694375.8,286047000.9,N
1569694395.6,286046999.3,N
1569694415.5,286046998.3,N
1569694435.3,286046999.1,N
1569694455.2,286046998.6,N
1569694475.0,286047001.0,N
1569694475.9,286047001.0,N
1569694495.7,286046998.8,N
1569694515.6,286046999.4,N
1569694535.4,286047000.7,N
1569694555.3,286046998.3,N
1569694575.1,286046999.0,N
1569694576.0,286046999.0,N
1569694595.8,286046999.6,N
1569694615.7,286046996.5,Y
1569694635.5,286046998.1,P
1569694655.4,286046998.2,P
1569694675.2,286047000.9,N
1569694695.0,286046999.8,N
1569694695.9,286046999.8,N
1569694715.8,286047001.1,N
1569694735.6,286047000.5,N
1569694755.4,286047000.7,N
1569694775.3,286046998.5,N
1569694795.5,286047000.8,N
1569694815.3,286046998.1,N
1569694835.2,286046999.8,N
1569694855.9,286047000.8,N
1569694875.7,286047001.0,N
1569694895.6,286046999.9,N
1569694915.4,286046998.9,N
1569694935.3,286046998.1,N
1569694955.1,286046998.2,N
1569694956.0,286046998.2,N
1569694975.8,286046999.8,N
1569694995.7,286047002.2,N
1569695015.5,286047000.1,N
1569695035.3,286047000.8,N
1569695055.2,286046998.2,N
1569695075.0,286046998.2,N
1569695075.9,286046998.2,N
1569695095.8,286046996.9,N
1569695115.6,286046999.6,N
1569695135.4,286046998.9,N
1569695155.3,286047000.8,N
1569695175.1,286047000.4,N
1569695195.9,286047004.4,Y
1569695215.7,286047001.6,P
1569695235.5,286047001.5,N
1569695255.4,286047003.2,P
1569695275.2,286047004.2,Y
1569695325.1,286047002.3,E
1569695335.9,286046998.8,N
1569695355.7,286046994.9,P
1569695375.6,286046997.3,N
1569695395.4,286046997.2,N
1569695415.2,286046997.6,N
1569695435.1,286046995.1,Y
1569695436.0,286046995.1,P
1569695455.8,286046998.7,N
1569695475.7,286046998.2,N
1569695495.5,286047000.7,N
1569695515.3,286046999.0,N
1569695535.2,286046999.1,N
1569695555.0,286046998.4,N
1569695555.9,286046998.4,N
1569695605.8,286047003.5,E
1569695615.7,286047004.0,N
1569695635.6,286047004.1,P
1569695655.4,286047004.4,P
1569695675.2,286047000.0,N
1569695695.1,286046998.6,N
1569695696.0,286046998.6,N
1569695715.8,286046999.4,N
1569695735.6,286046999.1,N
1569695755.5,286046997.6,N
1569695775.3,286046995.1,N
1569695795.2,286046995.0,N
1569695815.9,286046997.1,N
1569695835.7,286046997.5,N
1569695855.6,286046998.0,N
1569695875.4,286046997.9,N
1569695895.2,286046995.7,N
1569695915.1,286046996.1,N
1569695916.0,286046996.1,N
1569695935.8,286046996.9,N
1569695955.7,286046998.4,N
1569695975.5,286046998.3,N
1569695995.4,286046997.0,N
1569696015.2,286046999.4,N
1569696035.0,286046997.2,N
1569696035.9,286046997.2,N
1569696055.8,286046995.0,N
1569696075.6,286046997.4,N
1569696095.4,286046999.3,N
1569696115.3,286046998.8,N
1569696135.1,286047001.2,N
1569696155.9,286047000.6,N
1569696175.7,286047000.5,N
1569696195.5,286047000.2,N
1569696215.4,286047002.7,N
1569696235.2,286047000.4,N
1569696255.1,286047000.1,N
1569696256.0,286047000.1,N
1569696275.8,286046998.8,N
1569696295.6,286046998.2,N
1569696315.5,286047001.1,N
1569696335.3,286046998.4,N
1569696355.1,286046998.2,N
1569696375.9,286046998.7,N
1569696395.7,286047002.6,N
1569696415.6,286047000.3,N
1569696435.4,286046999.9,N
1569696455.2,286046998.4,N
1569696475.1,286046999.3,N
1569696476.0,286046999.3,N
1569696495.8,286046997.2,N
1569696515.7,286046997.2,N
1569696535.5,286046996.7,N
1569696555.3,286046997.6,N
1569696575.2,286046995.2,N
1569696595.0,286046998.0,N
1569696595.9,286046998.0,N
1569696615.8,286046996.1,N
1569696635.6,286046995.2,N
1569696655.4,286046995.3,N
1569696675.3,286046997.6,N
1569696695.1,286046997.2,N
1569696715.8,286046996.6,N
1569696735.7,286046998.6,N
1569696755.5,286047001.7,N
1569696775.4,286047005.9,Y
1569696795.2,286047009.0,P
1569696815.0,286047007.1,N
1569696815.9,286047007.1,N
1569696835.8,286047004.9,N
1569696855.6,286047007.6,N
1569696875.5,286047003.6,N
1569696895.3,286047004.2,N
1569696915.1,286047002.0,N
1569696935.9,286047004.2,N
1569696955.7,286047003.6,N
1569696975.6,286047004.1,N
1569696995.4,286047007.4,N
1569697015.4,286047007.0,N
1569697035.3,286047009.2,Y
1569697055.1,286047002.0,P
1569697075.9,286047001.0,N
1569697095.7,286047011.9,P
1569697115.5,286047000.8,N
1569697135.4,286046999.7,N
1569697155.2,286047000.7,N
1569697175.1,286047002.4,N
1569697176.0,286047002.4,N
1569697195.8,286047002.7,N
